Location: Kaltenbach
(49.2000°N, 7.7500°E)
Time: 02:45:30
(UTC+00:00)

PSLV R/B - Pass Details

Date: 24 January 2020
Orbit: 568 x 598 km, 98.2° (Epoch: 22 February)

Event Time Altitude Azimuth Distance (km) Brightness Sun altitude
Rises 17:00:25 0° 12° (NNE) 2,788 7.1 -8.1°
Reaches altitude 10° 17:02:34 10° 11° (NNE) 1,888 6.3 -8.4°
Maximum altitude 17:06:38 77° 287° (WNW) 596 4.1 -9.0°
Drops below altitude 10° 17:10:43 10° 201° (SSW) 1,887 7.1 -9.7°
Sets 17:12:52 0° 200° (SSW) 2,786 8.0 -10.0°
